BAW9PW LFPG-EGKK

Flight info

Callsign BAW9PW
Flight time 0h 39m
Altitude 22000
Route OPALE DCT KESAX DCT KUNAV
Aircraft A320/M-SDE3FGHIRWY/LB1

Departure

Time 2026-05-04 13:39
Airport Charles de Gaulle International Airport (LFPG)

Arrival

Time 2026-05-04 14:19
Airport London Gatwick Airport (EGKK)
Time Latitude Longitude Altitude Speed Heading
2026-05-04 13:26 49.01714 2.54092 354 ft 0 kts 209°
2026-05-04 13:29 49.01721 2.54098 362 ft 4 kts 208°
2026-05-04 13:30 49.01745 2.54116 359 ft 4 kts 204°
2026-05-04 13:30 49.01770 2.54132 362 ft 4 kts 205°
2026-05-04 13:30 49.01793 2.54149 359 ft 4 kts 226°
2026-05-04 13:30 49.01807 2.54182 364 ft 4 kts 252°
2026-05-04 13:31 49.01813 2.54221 363 ft 4 kts 269°
2026-05-04 13:31 49.01810 2.54261 360 ft 4 kts 279°
2026-05-04 13:31 49.01808 2.54275 362 ft 0 kts 278°
2026-05-04 13:31 49.01808 2.54276 362 ft 0 kts 278°
2026-05-04 13:33 49.01809 2.54265 361 ft 3 kts 278°
2026-05-04 13:34 49.01811 2.54208 362 ft 8 kts 271°
2026-05-04 13:34 49.01807 2.54108 357 ft 11 kts 266°
2026-05-04 13:34 49.01802 2.53968 354 ft 15 kts 267°
2026-05-04 13:34 49.01796 2.53790 354 ft 19 kts 267°
2026-05-04 13:35 49.01788 2.53575 359 ft 22 kts 266°
2026-05-04 13:35 49.01760 2.53114 356 ft 22 kts 264°
2026-05-04 13:35 49.01739 2.52891 357 ft 21 kts 283°
2026-05-04 13:36 49.01739 2.52678 360 ft 21 kts 263°
2026-05-04 13:36 49.01719 2.52444 359 ft 23 kts 263°
2026-05-04 13:36 49.01712 2.52199 356 ft 24 kts 269°
2026-05-04 13:36 49.01705 2.51936 358 ft 25 kts 264°
2026-05-04 13:37 49.01684 2.51660 358 ft 27 kts 263°
2026-05-04 13:37 49.01666 2.51375 354 ft 26 kts 277°
2026-05-04 13:37 49.01784 2.51270 354 ft 21 kts 359°
2026-05-04 13:37 49.01883 2.51267 354 ft 22 kts 358°
2026-05-04 13:38 49.02052 2.51353 360 ft 19 kts 58°
2026-05-04 13:38 49.02074 2.51486 354 ft 0 kts 83°
2026-05-04 13:38 49.02093 2.51830 355 ft 68 kts 86°
2026-05-04 13:39 49.02146 2.52859 356 ft 124 kts 85°
2026-05-04 13:39 49.02228 2.54395 362 ft 165 kts 84°
2026-05-04 13:39 49.02318 2.56220 738 ft 178 kts 85°
2026-05-04 13:39 49.02428 2.58197 1157 ft 198 kts 84°
2026-05-04 13:40 49.02593 2.60430 1471 ft 226 kts 83°
2026-05-04 13:40 49.02768 2.62943 1937 ft 248 kts 85°
2026-05-04 13:40 49.02901 2.65613 2772 ft 256 kts 86°
2026-05-04 13:40 49.03003 2.67947 3536 ft 260 kts 86°
2026-05-04 13:41 49.03124 2.70725 4433 ft 265 kts 86°
2026-05-04 13:41 49.03437 2.73510 4860 ft 270 kts 66°
2026-05-04 13:41 49.04616 2.75685 4978 ft 269 kts 32°
2026-05-04 13:42 49.08168 2.75662 5002 ft 270 kts 334°
2026-05-04 13:42 49.09806 2.74262 5007 ft 271 kts 328°
2026-05-04 13:42 49.11420 2.72696 5552 ft 277 kts 328°
2026-05-04 13:42 49.13050 2.71143 6643 ft 276 kts 330°
2026-05-04 13:43 49.14715 2.69650 7571 ft 280 kts 331°
2026-05-04 13:43 49.16429 2.68203 8493 ft 283 kts 332°
2026-05-04 13:43 49.18183 2.66783 9420 ft 287 kts 333°
2026-05-04 13:43 49.19958 2.65384 10195 ft 296 kts 334°
2026-05-04 13:44 49.21860 2.63898 10418 ft 319 kts 333°
2026-05-04 13:44 49.23797 2.62012 10625 ft 340 kts 325°
2026-05-04 13:44 49.25750 2.59885 11167 ft 347 kts 325°
2026-05-04 13:44 49.27728 2.57723 11800 ft 352 kts 325°
2026-05-04 13:45 49.29724 2.55533 12515 ft 355 kts 325°
2026-05-04 13:45 49.31745 2.53313 13202 ft 359 kts 325°
2026-05-04 13:45 49.33775 2.51085 13858 ft 363 kts 325°
2026-05-04 13:45 49.35841 2.48816 14439 ft 366 kts 325°
2026-05-04 13:46 49.37224 2.47292 14816 ft 369 kts 324°
2026-05-04 13:46 49.39316 2.44988 15376 ft 372 kts 324°
2026-05-04 13:46 49.41437 2.42653 15946 ft 376 kts 324°
2026-05-04 13:46 49.44278 2.39527 16705 ft 382 kts 324°
2026-05-04 13:47 49.45740 2.37915 17068 ft 384 kts 324°
2026-05-04 13:47 49.47919 2.35510 17672 ft 388 kts 324°
2026-05-04 13:47 49.50130 2.33069 18333 ft 393 kts 323°
2026-05-04 13:47 49.52365 2.30599 18958 ft 395 kts 323°
2026-05-04 13:48 49.54573 2.28150 19529 ft 397 kts 323°
2026-05-04 13:48 49.56823 2.25645 20101 ft 401 kts 323°
2026-05-04 13:48 49.59089 2.23123 20743 ft 404 kts 323°
2026-05-04 13:48 49.61380 2.20577 21250 ft 407 kts 323°
2026-05-04 13:49 49.63686 2.18014 21737 ft 410 kts 323°
2026-05-04 13:49 49.66011 2.15426 21936 ft 412 kts 322°
2026-05-04 13:49 49.68359 2.12805 21969 ft 419 kts 322°
2026-05-04 13:49 49.70729 2.10154 21966 ft 421 kts 322°
2026-05-04 13:50 49.73105 2.07493 21964 ft 422 kts 322°
2026-05-04 13:50 49.75478 2.04834 21964 ft 421 kts 322°
2026-05-04 13:50 49.77852 2.02172 21964 ft 421 kts 322°
2026-05-04 13:50 49.80223 1.99509 21959 ft 421 kts 322°
2026-05-04 13:51 49.82569 1.96873 21961 ft 421 kts 322°
2026-05-04 13:51 49.84939 1.94207 21962 ft 421 kts 322°
2026-05-04 13:51 49.87311 1.91533 21965 ft 421 kts 322°
2026-05-04 13:51 49.89709 1.88827 21964 ft 421 kts 322°
2026-05-04 13:52 49.94332 1.83335 21966 ft 421 kts 320°
2026-05-04 13:52 49.96619 1.80476 21968 ft 421 kts 319°
2026-05-04 13:52 49.98891 1.77609 21964 ft 421 kts 319°
2026-05-04 13:53 50.01175 1.74737 21964 ft 421 kts 319°
2026-05-04 13:53 50.03462 1.71880 21966 ft 421 kts 320°
2026-05-04 13:53 50.05755 1.69034 21968 ft 422 kts 320°
2026-05-04 13:54 50.10285 1.63248 21974 ft 421 kts 317°
2026-05-04 13:54 50.12500 1.60248 21974 ft 421 kts 317°
2026-05-04 13:54 50.16882 1.54183 21979 ft 421 kts 316°
2026-05-04 13:55 50.19076 1.51151 21989 ft 421 kts 316°
2026-05-04 13:55 50.23451 1.45153 21995 ft 421 kts 317°
2026-05-04 13:55 50.25655 1.42145 21996 ft 421 kts 317°
2026-05-04 13:56 50.27864 1.39138 21992 ft 421 kts 317°
2026-05-04 13:56 50.30073 1.36122 22002 ft 421 kts 317°
2026-05-04 13:56 50.34486 1.30058 21988 ft 423 kts 317°
2026-05-04 13:57 50.36696 1.27014 21994 ft 423 kts 317°
2026-05-04 13:57 50.38906 1.23968 21990 ft 423 kts 317°
2026-05-04 13:58 50.45361 1.15075 21334 ft 399 kts 317°
2026-05-04 13:58 50.49486 1.09359 20820 ft 391 kts 317°
2026-05-04 13:58 50.51496 1.06533 20401 ft 385 kts 314°
2026-05-04 13:59 50.53329 1.03487 19937 ft 381 kts 311°
2026-05-04 13:59 50.55133 1.00441 19454 ft 379 kts 311°
2026-05-04 13:59 50.58704 0.94428 18493 ft 373 kts 312°
2026-05-04 14:00 50.60470 0.91449 17978 ft 371 kts 312°
2026-05-04 14:00 50.63948 0.85568 16994 ft 364 kts 312°
2026-05-04 14:00 50.65666 0.82651 16475 ft 362 kts 311°
2026-05-04 14:01 50.67373 0.79747 15963 ft 360 kts 311°
2026-05-04 14:01 50.68998 0.76816 15489 ft 357 kts 309°
2026-05-04 14:01 50.72088 0.70756 14538 ft 352 kts 307°
2026-05-04 14:02 50.73589 0.67725 14086 ft 349 kts 307°
2026-05-04 14:02 50.75084 0.64718 13620 ft 347 kts 307°
2026-05-04 14:02 50.76552 0.61713 13121 ft 343 kts 302°
2026-05-04 14:02 50.77612 0.58368 12647 ft 339 kts 292°
2026-05-04 14:03 50.78536 0.54938 12169 ft 336 kts 292°
2026-05-04 14:03 50.79431 0.51536 11722 ft 334 kts 291°
2026-05-04 14:03 50.80313 0.48156 11279 ft 331 kts 291°
2026-05-04 14:03 50.81202 0.44802 10833 ft 330 kts 291°
2026-05-04 14:04 50.82932 0.38240 10275 ft 316 kts 291°
2026-05-04 14:04 50.83752 0.35079 10153 ft 305 kts 291°
2026-05-04 14:04 50.84553 0.32021 10023 ft 295 kts 291°
2026-05-04 14:05 50.86099 0.26138 9512 ft 287 kts 291°
2026-05-04 14:05 50.86859 0.23232 9189 ft 285 kts 291°
2026-05-04 14:05 50.87611 0.20330 8848 ft 283 kts 291°
2026-05-04 14:06 50.88351 0.17445 8539 ft 281 kts 291°
2026-05-04 14:06 50.89088 0.14592 8230 ft 279 kts 291°
2026-05-04 14:06 50.89816 0.11751 7972 ft 276 kts 291°
2026-05-04 14:06 50.90540 0.08931 7639 ft 276 kts 291°
2026-05-04 14:07 50.91261 0.06126 7318 ft 274 kts 291°
2026-05-04 14:07 50.91965 0.03365 7054 ft 272 kts 291°
2026-05-04 14:07 50.92672 0.00587 6974 ft 271 kts 291°
2026-05-04 14:07 50.93376 -0.02182 6641 ft 271 kts 291°
2026-05-04 14:08 50.94081 -0.04963 6301 ft 272 kts 291°
2026-05-04 14:08 50.94776 -0.07708 6141 ft 264 kts 291°
2026-05-04 14:08 50.95452 -0.10368 6012 ft 256 kts 291°
2026-05-04 14:08 50.96103 -0.12954 5882 ft 248 kts 291°
2026-05-04 14:09 50.97326 -0.17841 5563 ft 234 kts 291°
2026-05-04 14:09 50.97920 -0.20229 5308 ft 231 kts 291°
2026-05-04 14:10 50.99081 -0.24926 4808 ft 226 kts 291°
2026-05-04 14:10 50.99650 -0.27243 4549 ft 224 kts 291°
2026-05-04 14:10 51.00212 -0.29550 4291 ft 223 kts 291°
2026-05-04 14:10 51.00771 -0.31848 4035 ft 222 kts 291°
2026-05-04 14:11 51.01324 -0.34132 3789 ft 220 kts 291°
2026-05-04 14:11 51.02405 -0.38617 3270 ft 215 kts 291°
2026-05-04 14:11 51.02927 -0.40795 3059 ft 207 kts 291°
2026-05-04 14:12 51.03425 -0.42876 3000 ft 195 kts 291°
2026-05-04 14:12 51.03904 -0.44879 3009 ft 192 kts 291°
2026-05-04 14:12 51.04806 -0.48653 2989 ft 174 kts 291°
2026-05-04 14:13 51.05359 -0.50323 2981 ft 170 kts 317°
2026-05-04 14:13 51.06413 -0.51023 2995 ft 167 kts
2026-05-04 14:13 51.07464 -0.50355 3003 ft 165 kts 41°
2026-05-04 14:13 51.08267 -0.49036 3003 ft 166 kts 49°
2026-05-04 14:14 51.09007 -0.47621 3009 ft 166 kts 51°
2026-05-04 14:14 51.10462 -0.44758 3004 ft 166 kts 51°
2026-05-04 14:14 51.11187 -0.43330 3002 ft 166 kts 52°
2026-05-04 14:15 51.11886 -0.39900 2671 ft 165 kts 77°
2026-05-04 14:15 51.12406 -0.36322 2239 ft 169 kts 77°
2026-05-04 14:16 51.12910 -0.32734 1790 ft 164 kts 77°
2026-05-04 14:16 51.13157 -0.30971 1568 ft 163 kts 77°
2026-05-04 14:17 51.13634 -0.27543 1126 ft 151 kts 77°
2026-05-04 14:17 51.13858 -0.25932 919 ft 145 kts 78°
2026-05-04 14:17 51.14290 -0.22835 546 ft 141 kts 77°
2026-05-04 14:18 51.14503 -0.21304 314 ft 141 kts 77°
2026-05-04 14:18 51.14853 -0.18761 206 ft 75 kts 77°
2026-05-04 14:19 51.14948 -0.18093 210 ft 20 kts 75°
2026-05-04 14:19 51.15025 -0.17867 209 ft 8 kts 39°
2026-05-04 14:19 51.15031 -0.17859 211 ft 1 kts 40°
2026-05-04 14:19 51.15069 -0.17787 210 ft 14 kts 45°
2026-05-04 14:20 51.15116 -0.17760 206 ft 0 kts
2026-05-04 14:20 51.15140 -0.17754 205 ft 9 kts 13°
2026-05-04 14:20 51.15192 -0.17633 208 ft 19 kts 73°
2026-05-04 14:21 51.15220 -0.17419 213 ft 0 kts 80°
2026-05-04 14:23 51.15315 -0.17366 205 ft 18 kts 350°
2026-05-04 14:23 51.15453 -0.17410 211 ft 22 kts 347°
2026-05-04 14:23 51.15613 -0.17465 210 ft 25 kts 348°
2026-05-04 14:24 51.15766 -0.17446 208 ft 22 kts 60°
2026-05-04 14:24 51.15801 -0.17233 208 ft 18 kts 78°
2026-05-04 14:24 51.15847 -0.17107 212 ft 5 kts
2026-05-04 14:24 51.15887 -0.17072 210 ft 8 kts 31°
2026-05-04 14:25 51.15938 -0.17011 213 ft 10 kts 46°
2026-05-04 14:25 51.15952 -0.16833 217 ft 5 kts 174°
2026-05-04 14:25 51.15914 -0.16840 205 ft 0 kts 189°